SCP
0 0 0 0 0 0 0 0 0 0 0 0 0 0 0 0 0 0 0 0 0 0 0 0 0 0 0 0 0 0 0 0 0 0 0 0 0 0
0 0 0 0 0 0 0 0 0 0 0 0 0 0 0 0 0 0 0 0 0 0 0 0 0 0 0 0 0 0 0 0 0 0 0 0 0 0
0 0 0 0 0 0 0 0 0 0 0 0 0 0 0 0 0 0 0 0 0 0 0 0 0 0 0 0 0 0 0 0 0 0 0 0 0 0
0 0 0 0 0 0 0 0 0 0 0 0 0 0 0 0 0 0 0 0 0 0 0 0 0 0 0 0 0 0 0 0 0 0 0 0 0 0
0 0 0 0 0 0 0 0 0 0 0 0 0 0 0 0 0 0 0 0 0 0 0 0 0 0 0 0 0 0 0 0 0 0 0 0 0 0
0 0 0 0 0 0 0 0 0 0 0 0 0 0 0 0 0 0 0 0 0 0 0 0 0 0 0 0 0 0 0 0 0 0 0 0 0 0
0 0 0 0 0 0 0 0 0 0 0 0 0 0 0 0 0 0 0 0 0 0 0 0 0 0 0 0 0 0 0 0 0 0 0 0 0 0
0 0 0 0 0 0 0 0 0 0 0 0 0 0 0 0 0 0 0 0 0 0 0 0 0 0 0 0 0 0 0 0 0 0 0 0 0 0
0 0 0 0 0 0 0 0 0 0 0 0 0 0 0 0 0 0 0 0 0 0 0 0 0 0 0 0 0 0 0 0 0 0 0 0 0 0
0 0 0 0 0 0 0 0 0 0 0 0 0 0 0 0 0 0 0 0 0 0 0 0 0 0 0 0 0 0 0 0 0 0 0 0 0 0
0 0 0 0 0 0 0 0 0 0 0 0 0 0 0 0 0 0 0 0 0 0 0 0 0 0 0 0 0 0 0 0 0 0 0 0 0 0
0 0 0 0 0 0 0 0 0 0 0 0 0 0 0 0 0 0 0 0 0 0 0 0 0 0 0 0 0 0 0 0 0 0 0 0 0 0
0 0 0 0 0 0 0 0 0 0 0 0 0 0 0 0 0 0 0 0 0 0 0 0 0 0 0 0 0 0 0 0 0 0 0 0 0 0
0 0 0 0 0 0 0 0 0 0 0 0 0 0 0 0 0 0 0 0 0 0 0 0 0 0 0 0 0 0 0 0 0 0 0 0 0 0
0 0 0 0 0 0 0 0 0 0 0 0 0 0 0 0 0 0 0 0 0 0 0 0 0 0 0 0 0 0 0 0 0 0 0 0 0 0
0 0 0 0 0 0 0 0 0 0 0 0 0 0 0 0 0 0 0 0 0 0 0 0 0 0 0 0 0 0 0 0 0 0 0 0 0 0
0 0 0 0 0 0 0 0 0 0 0 0 0 0 0 0 0 0 0 0 0 0 0 0 0 0 0 0 0 0 0 0 0 0 0 0 0 0
0 0 0 0 0 0 0 0 0 0 0 0 0 0 0 0 0 0 0 0 0 0 0 0 0 0 0 0 0 0 0 0 0 0 0 0 0 0
0 0 0 0 0 0 0 0 0 0 0 0 0 0 0 0 0 0 0 0 0 0 0 0 0 0 0 0 0 0 0 0 0 0 0 0 0 0
0 0 0 0 0 0 0 0 0 0 0 0 0 0 0 0 0 0 0 0 0 0 0 0 0 0 0 0 0 0 0 0 0 0 0 0 0 0
0 0 0 0 0 0 0 0 0 0 0 0 0 0 0 0 0 0 0 0 0 0 0 0 0 0 0 0 0 0 0 0 0 0 0 0 0 0
0 0 0 0 0 0 0 0 0 0 0 0 0 0 0 0 0 0 0 0 0 0 0 0 0 0 0 0 0 0 0 0 0 0 0 0 0 0
0 0 0 0 0 0 0 0 0 0 0 0 0 0 0 0 0 0 0 0 0 0 0 0 0 0 0 0 0 0 0 0 0 0 0 0 0 0
Wind_Speed
3 4 2 1 1 1 2 3 4 4 2 4 3 1 2 1 1 4 3 3 2 4 5 5 5 5 6 6 7 7 8 9 9 10 11 11 12 13
1 1 2 2 1 1 1 2 3 4 3 1 1 1 2 3 2 4 5 4 7 6 5 5 6 6 6 7 7 8 8 9 9 10 11 11 12 13
4 4 3 1 2 2 2 2 2 3 4 2 1 1 2 5 3 4 6 6 5 9 7 6 7 8 8 8 8 8 9 9 9 10 11 11 11 12
5 5 5 4 3 3 2 2 2 2 4 3 3 3 4 5 5 6 7 6 7 6 8 8 9 9 9 9 9 10 10 10 10 10 11 11 12 13
6 6 5 5 5 3 4 3 3 3 4 4 4 3 4 4 5 7 7 5 9 5 9 11 11 11 11 11 11 11 11 11 11 11 11 12 12 13
6 6 6 6 6 5 5 5 4 4 4 6 5 4 4 4 5 6 6 5 6 7 6 6 9 13 15 14 14 13 12 12 12 12 12 12 13 13
7 7 7 5 3 4 5 4 5 5 6 6 5 5 4 4 5 5 6 7 6 6 7 7 7 8 9 14 17 15 13 12 12 12 13 13 13 14
8 8 8 8 8 9 8 7 7 7 7 6 6 6 6 6 5 7 8 8 8 5 6 8 8 8 8 9 5 9 12 12 13 13 13 13 14 14
9 8 8 7 9 9 10 12 11 12 10 9 10 9 8 7 7 9 8 9 10 9 9 10 9 9 9 8 6 9 11 12 13 13 14 14 14 14
10 10 9 8 8 8 8 9 10 10 11 11 10 11 10 8 8 9 10 11 11 10 9 11 10 10 9 9 7 11 13 13 14 14 15 15 15 15
11 11 10 10 7 6 9 10 10 9 9 10 10 10 10 9 8 9 10 10 11 9 7 9 10 10 10 10 9 11 14 15 15 16 16 16 16 14
9 10 10 10 6 9 10 10 10 9 8 7 9 11 12 13 13 12 11 10 10 10 7 8 10 10 11 9 9 8 9 13 17 17 17 17 15 12
8 8 7 13 11 11 10 10 9 8 8 9 9 9 9 9 9 10 10 10 10 11 9 8 10 10 11 11 10 10 10 10 9 11 15 18 17 14
8 7 5 10 12 11 10 9 8 7 9 9 9 9 9 8 7 7 8 10 11 13 12 11 11 11 12 13 12 11 10 9 10 11 11 10 14 17
7 4 2 6 8 9 12 10 8 8 9 9 9 9 8 7 7 7 9 10 12 13 13 12 12 11 11 13 13 13 12 11 10 11 11 10 10 10
9 7 7 7 8 7 6 8 9 8 8 8 9 8 7 7 8 8 9 8 10 10 11 11 12 13 12 13 13 13 13 12 11 11 10 10 10 11
6 7 7 7 7 7 7 7 7 7 8 8 8 8 8 8 8 8 8 9 10 11 10 8 9 10 12 12 13 13 12 12 11 10 10 12 12 12
5 6 7 6 6 6 5 6 6 6 6 6 7 7 8 8 8 8 8 9 10 10 10 10 9 9 10 11 12 14 12 12 11 10 11 12 13 11
5 6 5 5 4 5 5 6 6 5 5 6 7 7 7 8 8 9 8 9 9 10 10 9 9 10 12 13 11 10 11 11 11 11 11 12 13 12
5 5 4 4 4 5 5 5 5 6 6 6 7 7 8 8 9 9 8 9 9 10 10 10 9 9 11 13 13 13 12 13 12 12 12 12 12 12
4 4 4 4 4 5 5 5 6 6 6 6 7 7 7 8 8 9 9 10 10 10 11 11 8 9 10 11 12 13 12 11 11 12 13 13 13 13
3 3 3 4 5 4 5 5 5 6 6 6 7 7 7 7 9 11 10 10 9 10 11 10 10 9 10 11 13 15 15 14 12 14 17 17 13 13
2 3 4 4 4 4 4 5 6 6 6 6 7 7 8 8 9 9 10 10 9 10 11 10 10 9 10 11 13 13 17 16 13 12 12 13 18 21
Wind_Direction
174 179 223 158 248 280 278 281 282 264 213 165 217 153 263 276 94 269 274 135 228 261 266 269 271 273 276 276 275 272 270 268 262 258 257 256 254 254
195 165 234 200 182 231 254 268 285 292 292 112 210 235 329 296 170 279 282 202 225 233 245 257 266 267 267 267 269 270 269 268 266 262 258 255 253 252
190 185 202 246 229 221 223 241 256 268 270 258 227 206 254 283 290 288 278 271 245 200 219 245 259 264 265 264 264 266 268 267 267 265 262 259 257 255
198 197 202 194 204 253 251 250 255 281 268 272 259 237 233 256 272 281 281 280 290 191 204 233 246 252 257 259 260 262 264 266 267 266 264 264 264 262
205 207 209 207 216 219 237 241 237 232 257 264 261 264 260 262 275 269 273 274 280 246 209 218 229 240 248 252 253 255 258 259 261 262 262 262 262 263
213 217 219 218 220 222 226 235 250 255 246 257 264 260 255 254 264 276 278 263 272 285 280 258 232 227 235 240 244 247 250 253 255 257 259 260 260 260
215 219 223 227 250 253 260 247 243 250 254 253 261 264 268 280 280 287 291 291 277 272 283 279 264 256 243 231 231 237 241 246 250 254 256 256 257 257
219 221 221 211 221 229 255 269 275 264 270 276 273 278 282 284 288 291 294 293 292 291 288 286 282 279 275 271 237 210 227 240 248 251 254 256 257 257
224 226 233 219 210 227 221 225 240 246 254 269 279 283 287 286 291 286 284 290 293 298 290 284 283 280 277 274 219 219 232 242 249 253 255 256 257 258
231 230 234 239 228 232 241 237 238 231 227 233 253 267 275 285 280 277 283 277 271 265 262 275 282 282 284 284 247 227 235 242 247 250 253 254 255 256
235 234 234 237 215 208 241 249 252 252 238 233 249 265 280 280 276 275 274 276 279 281 269 273 284 286 286 281 268 230 231 238 243 246 248 251 252 254
228 230 227 237 210 194 233 246 253 260 270 252 237 247 253 250 233 241 262 273 281 284 285 282 284 288 287 282 283 277 253 239 235 239 242 244 245 252
233 228 221 196 208 207 226 245 254 268 270 267 263 259 252 249 240 231 240 258 273 279 286 285 285 284 283 286 284 281 278 279 267 253 237 236 234 235
243 244 225 175 195 208 221 240 252 258 260 261 262 264 266 267 264 262 257 257 260 270 280 284 281 282 284 285 286 286 281 277 275 276 275 251 229 229
250 258 243 173 196 214 225 232 237 242 251 257 262 267 273 280 282 274 265 259 259 259 261 259 263 271 273 277 282 286 286 283 278 275 274 273 271 260
244 233 210 209 229 254 238 219 229 243 252 261 269 275 280 275 268 270 273 273 273 272 263 258 255 262 267 271 276 280 281 283 282 279 280 279 274 268
216 226 231 226 224 229 235 237 238 239 242 254 266 273 275 276 276 275 273 275 276 280 283 276 264 257 259 268 274 275 279 280 280 282 281 279 275 272
211 232 236 239 244 249 249 248 244 247 254 261 265 270 273 275 278 278 274 275 278 281 284 288 289 284 277 267 253 269 276 279 283 282 279 277 277 275
217 236 244 249 254 258 260 263 267 266 266 266 268 269 271 272 274 276 277 278 280 284 288 289 288 285 284 285 280 250 273 284 286 284 280 278 280 282
226 235 243 248 254 260 263 266 270 273 269 269 272 274 274 275 276 279 280 282 285 287 287 284 283 285 287 292 295 291 270 273 281 283 284 283 281 278
227 241 252 258 260 263 269 273 276 277 279 280 277 277 279 281 282 284 284 283 280 281 284 286 291 289 286 285 282 283 285 269 262 273 283 285 284 283
250 259 266 271 273 276 277 277 277 279 279 278 283 283 281 281 281 280 282 284 284 284 289 291 294 289 285 283 285 290 292 291 277 254 249 254 267 276
289 291 287 281 282 285 286 287 286 286 287 286 286 288 289 287 286 286 287 288 291 291 291 292 293 291 287 284 285 287 290 292 290 289 279 254 240 246